Weather History for Sylvania, GA

Change the Weather History Date:

Thursday, February 7, 2013

  Actual Average (KSAV) Record (KSAV)
Temperature  
Mean Temperature 52 °F 52 °F  
Max Temperature 56 °F 63 °F 81 °F (1904)
Min Temperature 49 °F 40 °F 21 °F (1978)
Degree Days  
Heating Degree Days 12 14  
Month to date heating degree days 98  
Since 1 July heating degree days 1272  
Cooling Degree Days 0 0  
Month to date cooling degree days 0  
Year to date cooling degree days 3  
Growing Degree Days 2 (Base 50)    
Moisture  
Dew Point 54 °F    
Average Humidity 100    
Maximum Humidity 100    
Minimum Humidity 97    
Precipitation  
Precipitation 0.00 in 0.10 in 1.57 in (1953)
Month to date precipitation 0.74  
Year to date precipitation 4.43  
Sea Level Pressure  
Sea Level Pressure 30.02 in    
Wind  
Wind Speed 5 mph (ENE)    
Max Wind Speed 16 mph    
Max Gust Speed 21 mph    
Visibility 5 miles    
Events Fog , Rain    
T = Trace of Precipitation, MM = Missing Value Source: NWS Daily Summary

Daily Weather History Graph

Daily Weather History Graph

Search for Another Location

Airport:

Trip Planner

Search our weather history database for the weather conditions in past years. The results will help you decide how hot, cold, wet, or windy it might be!

Date:

Astronomy

Feb. 07, 2013 Rise Set
Actual Time 7:16 AM EST 6:05 PM EST
Civil Twilight 6:50 AM EST 6:30 PM EST
Nautical Twilight 6:21 AM EST 6:59 PM EST
Astronomical Twilight 5:52 AM EST 7:28 PM EST
Moon 4:49 AM EST (2/7) 3:32 PM EST (2/7)
Length of Visible Light 11h 39m
Length of Day
10h 48m
Waning Crescent, 9% of the Moon is Illuminated
Feb 7
Waning Crescent
Feb 10
New
Feb 17
First Quarter
Feb 25
Full
Mar 4
Last Quarter

Hourly Weather History & Observations

Time (EST) Temp. Dew Point Humidity Pressure Visibility Wind Dir Wind Speed Gust Speed Precip Events Conditions
12:15 AM 49.1 °F 49.1 °F 100% 30.15 in 10.0 mi East 3.5 mph - N/A   Clear
12:35 AM 51.6 °F 51.6 °F 100% 30.15 in 7.0 mi ESE 3.5 mph - N/A   Clear
12:55 AM 51.8 °F 51.8 °F 100% 30.15 in 7.0 mi Calm Calm - N/A   Clear
1:15 AM 51.1 °F 51.1 °F 100% 30.15 in 5.0 mi Calm Calm - N/A   Clear
1:35 AM 51.6 °F 51.6 °F 100% 30.14 in 5.0 mi Calm Calm - N/A   Clear
1:55 AM 51.8 °F 51.8 °F 100% 30.14 in 4.0 mi Calm Calm - N/A   Clear
2:15 AM 51.8 °F 51.8 °F 100% 30.15 in 1.8 mi Calm Calm - N/A   Scattered Clouds
2:35 AM 50.5 °F 50.5 °F 100% 30.15 in 1.5 mi Calm Calm - N/A   Mostly Cloudy
2:55 AM 52.2 °F 52.2 °F 100% 30.14 in 2.5 mi Calm Calm - N/A   Scattered Clouds
3:15 AM 51.1 °F 51.1 °F 100% 30.14 in 0.5 mi Calm Calm - N/A Fog Fog
3:35 AM 51.6 °F 51.6 °F 100% 30.14 in 0.5 mi Calm Calm - N/A Fog Fog
3:55 AM 51.3 °F 51.3 °F 100% 30.14 in 0.8 mi Calm Calm - N/A   Mist
4:15 AM 51.8 °F 51.8 °F 100% 30.15 in 1.0 mi Calm Calm - N/A   Mist
4:35 AM 51.8 °F 51.8 °F 100% 30.15 in 0.8 mi Calm Calm - N/A   Overcast
4:55 AM 52.9 °F 52.9 °F 100% 30.14 in 2.0 mi Calm Calm - N/A   Overcast
5:15 AM 52.9 °F 52.9 °F 100% 30.15 in 2.5 mi Calm Calm - N/A   Mostly Cloudy
5:35 AM 53.4 °F 53.4 °F 100% 30.15 in 3.0 mi Calm Calm - N/A   Overcast
5:55 AM 54.0 °F 54.0 °F 100% 30.15 in 4.0 mi East 5.8 mph - N/A   Overcast
6:15 AM 54.5 °F 54.5 °F 100% 30.15 in 5.0 mi Calm Calm - N/A   Overcast
6:35 AM 54.0 °F 54.0 °F 100% 30.13 in 5.0 mi ENE 6.9 mph - N/A   Mostly Cloudy
6:55 AM 53.4 °F 53.4 °F 100% 30.13 in 5.0 mi East 5.8 mph - N/A   Scattered Clouds
7:15 AM 53.2 °F 53.2 °F 100% 30.14 in 5.0 mi Calm Calm - N/A   Mostly Cloudy
7:35 AM 53.6 °F 53.6 °F 100% 30.13 in 5.0 mi East 6.9 mph - N/A   Overcast
7:55 AM 54.0 °F 53.8 °F 99% 30.13 in 4.0 mi ENE 5.8 mph - N/A   Overcast
8:15 AM 54.5 °F 53.6 °F 97% 30.13 in 5.0 mi East 6.9 mph - N/A   Overcast
8:35 AM 54.5 °F 53.8 °F 97% 30.12 in 4.0 mi East 6.9 mph - N/A Rain Rain
8:55 AM 54.3 °F 53.8 °F 98% 30.11 in 4.0 mi East 6.9 mph - N/A Rain Light Rain
9:15 AM 54.0 °F 53.8 °F 99% 30.11 in 3.0 mi ENE 4.6 mph - N/A Rain Rain
9:35 AM 54.1 °F 54.1 °F 100% 30.10 in 3.0 mi East 6.9 mph - N/A Rain Rain
9:55 AM 54.5 °F 54.5 °F 100% 30.10 in 4.0 mi East 4.6 mph - N/A Rain Rain
10:15 AM 54.7 °F 54.7 °F 100% 30.10 in 4.0 mi ENE 4.6 mph - N/A Rain Light Rain
10:35 AM 54.9 °F 54.9 °F 100% 30.11 in 2.5 mi Calm Calm - N/A Rain Rain
10:55 AM 54.5 °F 54.5 °F 100% 30.10 in 3.0 mi NE 5.8 mph - N/A Rain Light Rain
11:15 AM 54.5 °F 54.5 °F 100% 30.10 in 1.8 mi ENE 6.9 mph - N/A Rain Rain
11:35 AM 54.5 °F 54.5 °F 100% 30.09 in 2.0 mi NE 6.9 mph - N/A Rain Heavy Rain
11:55 AM 54.5 °F 54.5 °F 100% 30.08 in 2.5 mi NE 6.9 mph - N/A Rain Heavy Rain
12:15 PM 54.5 °F 54.5 °F 100% 30.07 in 2.0 mi ENE 5.8 mph - N/A Rain Heavy Rain
12:35 PM 54.7 °F 54.7 °F 100% 30.06 in 2.0 mi Calm Calm - N/A Rain Rain
12:55 PM 54.9 °F 54.9 °F 100% 30.05 in 3.0 mi ENE 6.9 mph - N/A Rain Rain
1:15 PM 55.4 °F 55.4 °F 100% 30.03 in 4.0 mi ENE 3.5 mph - N/A Rain Rain
1:35 PM 55.8 °F 55.8 °F 100% 30.02 in 5.0 mi East 9.2 mph - N/A Rain Rain
1:55 PM 55.9 °F 55.9 °F 100% 30.00 in 7.0 mi East 6.9 mph - N/A   Light Drizzle
2:15 PM 56.3 °F 56.3 °F 100% 29.99 in 7.0 mi East 8.1 mph - N/A Rain Light Rain
2:35 PM 56.3 °F 56.3 °F 100% 29.99 in 7.0 mi East 10.4 mph - N/A Rain Rain
2:55 PM 56.3 °F 56.3 °F 100% 29.98 in 7.0 mi East 12.7 mph 17.3 mph N/A Rain Light Rain
3:15 PM 56.3 °F 56.3 °F 100% 29.95 in 7.0 mi ENE 12.7 mph - N/A Rain Light Rain
3:35 PM 55.8 °F 55.8 °F 100% 29.94 in 7.0 mi East 12.7 mph 16.1 mph N/A Rain Heavy Rain
3:55 PM 55.4 °F 55.4 °F 100% 29.92 in 5.0 mi East 12.7 mph 18.4 mph N/A Rain Light Rain
4:15 PM 55.4 °F 55.4 °F 100% 29.91 in 5.0 mi ENE 11.5 mph 17.3 mph N/A Rain Light Rain
4:35 PM 55.4 °F 55.4 °F 100% 29.92 in 5.0 mi ENE 8.1 mph 16.1 mph N/A Rain Rain
4:55 PM 55.0 °F 55.0 °F 100% 29.92 in 2.5 mi ENE 5.8 mph - N/A Rain Heavy Rain
5:15 PM 55.0 °F 55.0 °F 100% 29.91 in 3.0 mi East 8.1 mph - N/A Rain Heavy Rain
5:35 PM 54.9 °F 54.9 °F 100% 29.90 in 5.0 mi ENE 8.1 mph - N/A Rain Rain
5:55 PM 54.9 °F 54.9 °F 100% 29.89 in 10.0 mi East 10.4 mph - N/A Rain Rain
6:35 PM 54.5 °F 54.5 °F 100% 29.85 in 5.0 mi East 16.1 mph 19.6 mph N/A Rain Rain
6:55 PM 54.3 °F 54.3 °F 100% 29.85 in 5.0 mi ENE 10.4 mph 19.6 mph N/A Rain Heavy Rain
7:15 PM 54.1 °F 54.1 °F 100% 29.84 in 4.0 mi East 15.0 mph 20.7 mph N/A Rain Rain
7:35 PM 54.0 °F 54.0 °F 100% 29.83 in 5.0 mi East 15.0 mph 20.7 mph N/A Rain Light Rain
7:55 PM 54.0 °F 54.0 °F 100% 29.82 in 5.0 mi East 11.5 mph - N/A Rain Light Rain
8:15 PM 54.1 °F 54.1 °F 100% 29.81 in 7.0 mi East 9.2 mph 17.3 mph N/A Rain Light Rain
8:35 PM 54.5 °F 54.5 °F 100% 29.80 in 7.0 mi East 9.2 mph 16.1 mph N/A Rain Rain
8:55 PM 54.5 °F 54.5 °F 100% 29.80 in 5.0 mi ENE 5.8 mph - N/A Rain Light Rain
9:15 PM 54.3 °F 54.3 °F 100% 29.83 in 4.0 mi North 11.5 mph - N/A Rain Rain
9:35 PM 53.8 °F 53.8 °F 100% 29.82 in 5.0 mi North 11.5 mph 18.4 mph N/A Rain Heavy Rain
9:55 PM 53.4 °F 53.4 °F 100% 29.82 in 7.0 mi North 12.7 mph 19.6 mph N/A Rain Light Rain
10:15 PM 52.7 °F 52.7 °F 100% 29.83 in 7.0 mi North 12.7 mph 18.4 mph N/A Rain Rain
10:35 PM 52.5 °F 52.5 °F 100% 29.82 in 7.0 mi NNE 15.0 mph 18.4 mph N/A Rain Light Rain
10:55 PM 52.2 °F 52.2 °F 100% 29.82 in 10.0 mi NNE 13.8 mph 19.6 mph N/A   Overcast
11:15 PM 51.8 °F 51.8 °F 100% 29.83 in 10.0 mi North 12.7 mph 17.3 mph N/A   Overcast
11:35 PM 51.6 °F 51.4 °F 99% 29.84 in 10.0 mi North 9.2 mph - N/A   Overcast
11:55 PM 51.3 °F 51.1 °F 99% 29.84 in 10.0 mi North 9.2 mph - N/A   Overcast